Time,TemperatureF,DewpointF,PressureIn,WindDirection,WindDirectionDegrees,WindSpeedMPH,WindSpeedGustMPH,Humidity,HourlyPrecipIn,Conditions,Clouds,dailyrainin,SoftwareType,DateUTC
2013-07-02 00:09:00,64.3,62.5,29.94,NE,42,0.0,0.0,94,0.00,,,0.00,Wunderground v.1.15,2013-07-02 04:09:00,
2013-07-02 00:19:00,64.3,62.5,29.94,NNE,22,0.0,0.0,94,0.00,,,0.00,Wunderground v.1.15,2013-07-02 04:19:00,
2013-07-02 00:29:00,64.4,62.6,29.94,North,350,0.0,1.0,94,0.00,,,0.00,Wunderground v.1.15,2013-07-02 04:29:00,
2013-07-02 00:39:00,64.4,62.6,29.95,North,350,0.0,0.0,94,0.00,,,0.00,Wunderground v.1.15,2013-07-02 04:39:00,
2013-07-02 00:49:00,64.3,62.5,29.94,North,350,0.0,1.0,94,0.00,,,0.00,Wunderground v.1.15,2013-07-02 04:49:00,
2013-07-02 00:59:00,64.3,62.5,29.95,North,355,1.0,1.0,94,0.00,,,0.00,Wunderground v.1.15,2013-07-02 04:59:00,
2013-07-02 01:09:00,64.1,62.3,29.95,NW,304,1.0,1.0,94,0.00,,,0.00,Wunderground v.1.15,2013-07-02 05:09:00,
2013-07-02 01:19:00,64.1,62.3,29.94,NW,304,0.0,0.0,94,0.00,,,0.00,Wunderground v.1.15,2013-07-02 05:19:00,
2013-07-02 01:29:00,64.1,62.3,29.95,NE,34,0.0,0.0,94,0.00,,,0.00,Wunderground v.1.15,2013-07-02 05:29:00,
2013-07-02 01:39:00,64.1,62.3,29.94,NE,34,0.0,0.0,94,0.00,,,0.00,Wunderground v.1.15,2013-07-02 05:39:00,
2013-07-02 01:49:00,64.1,62.3,29.94,NE,34,0.0,0.0,94,0.00,,,0.00,Wunderground v.1.15,2013-07-02 05:49:00,
2013-07-02 01:59:00,64.1,62.3,29.93,NNE,33,0.0,0.0,94,0.00,,,0.00,Wunderground v.1.15,2013-07-02 05:59:00,
2013-07-02 02:09:00,64.1,62.3,29.93,NE,36,0.0,1.0,94,0.00,,,0.00,Wunderground v.1.15,2013-07-02 06:09:00,
2013-07-02 02:19:00,64.0,62.2,29.93,East,80,1.0,1.0,94,0.00,,,0.00,Wunderground v.1.15,2013-07-02 06:19:00,
2013-07-02 02:29:00,64.0,62.2,29.93,East,80,0.0,0.0,94,0.00,,,0.00,Wunderground v.1.15,2013-07-02 06:29:00,
2013-07-02 02:39:00,64.0,62.2,29.93,East,80,0.0,0.0,94,0.00,,,0.00,Wunderground v.1.15,2013-07-02 06:39:00,
2013-07-02 02:49:00,64.0,62.5,29.92,East,80,0.0,0.0,95,0.00,,,0.00,Wunderground v.1.15,2013-07-02 06:49:00,
2013-07-02 02:59:00,64.1,62.6,29.92,East,80,0.0,1.0,95,0.00,,,0.00,Wunderground v.1.15,2013-07-02 06:59:00,
2013-07-02 03:09:00,64.0,62.5,29.92,ENE,59,1.0,1.0,95,0.00,,,0.00,Wunderground v.1.15,2013-07-02 07:09:00,
2013-07-02 03:19:00,64.1,62.6,29.92,ENE,59,0.0,0.0,95,0.00,,,0.00,Wunderground v.1.15,2013-07-02 07:19:00,
2013-07-02 03:29:00,64.1,62.6,29.92,NE,50,0.0,0.0,95,0.00,,,0.00,Wunderground v.1.15,2013-07-02 07:29:00,
2013-07-02 03:39:00,64.1,62.6,29.92,NE,49,0.0,0.0,95,0.00,,,0.00,Wunderground v.1.15,2013-07-02 07:39:00,
2013-07-02 03:49:00,64.1,62.6,29.92,NE,49,0.0,0.0,95,0.00,,,0.00,Wunderground v.1.15,2013-07-02 07:49:00,
2013-07-02 03:59:00,64.1,62.6,29.93,NE,49,0.0,1.0,95,0.00,,,0.00,Wunderground v.1.15,2013-07-02 07:59:00,
2013-07-02 04:09:00,64.1,62.6,29.92,NE,49,0.0,0.0,95,0.00,,,0.00,Wunderground v.1.15,2013-07-02 08:09:00,
2013-07-02 04:19:00,64.2,62.7,29.93,NE,49,0.0,0.0,95,0.00,,,0.00,Wunderground v.1.15,2013-07-02 08:19:00,
2013-07-02 04:29:00,64.2,62.7,29.93,NE,49,0.0,0.0,95,0.00,,,0.00,Wunderground v.1.15,2013-07-02 08:29:00,
2013-07-02 04:39:00,64.3,62.8,29.93,NE,49,0.0,0.0,95,0.00,,,0.00,Wunderground v.1.15,2013-07-02 08:39:00,
2013-07-02 04:49:00,64.3,62.8,29.94,NE,49,0.0,1.0,95,0.00,,,0.00,Wunderground v.1.15,2013-07-02 08:49:00,
2013-07-02 04:59:00,64.3,62.8,29.94,NE,50,0.0,0.0,95,0.00,,,0.00,Wunderground v.1.15,2013-07-02 08:59:00,
2013-07-02 05:09:00,64.4,62.9,29.94,NE,50,0.0,1.0,95,0.00,,,0.00,Wunderground v.1.15,2013-07-02 09:09:00,
2013-07-02 05:19:00,64.5,63.0,29.93,NE,50,1.0,2.0,95,0.00,,,0.00,Wunderground v.1.15,2013-07-02 09:19:00,
2013-07-02 05:29:00,64.6,63.1,29.94,NE,41,1.0,1.0,95,0.00,,,0.00,Wunderground v.1.15,2013-07-02 09:29:00,
2013-07-02 05:39:00,64.5,63.0,29.94,NE,41,1.0,1.0,95,0.00,,,0.00,Wunderground v.1.15,2013-07-02 09:39:00,
2013-07-02 05:44:00,64.5,63.0,29.94,NE,41,0.0,1.0,95,0.00,,,0.00,Wunderground v.1.15,2013-07-02 09:44:00,
2013-07-02 05:59:00,64.5,63.0,29.94,NE,41,0.0,0.0,95,0.00,,,0.00,Wunderground v.1.15,2013-07-02 09:59:00,
2013-07-02 06:09:00,64.4,62.9,29.94,NE,41,0.0,0.0,95,0.00,,,0.00,Wunderground v.1.15,2013-07-02 10:09:00,
2013-07-02 06:19:00,64.4,62.9,29.94,NE,41,0.0,0.0,95,0.00,,,0.00,Wunderground v.1.15,2013-07-02 10:19:00,
2013-07-02 06:29:00,64.4,62.9,29.94,NE,41,0.0,0.0,95,0.00,,,0.00,Wunderground v.1.15,2013-07-02 10:29:00,
2013-07-02 06:39:00,64.4,62.9,29.95,NE,41,0.0,0.0,95,0.00,,,0.00,Wunderground v.1.15,2013-07-02 10:39:00,
2013-07-02 06:49:00,64.5,63.0,29.95,NE,41,0.0,0.0,95,0.00,,,0.00,Wunderground v.1.15,2013-07-02 10:49:00,
2013-07-02 06:59:00,64.6,63.1,29.95,NE,41,0.0,0.0,95,0.00,,,0.00,Wunderground v.1.15,2013-07-02 10:59:00,
2013-07-02 07:04:00,64.6,63.1,29.95,NE,41,0.0,0.0,95,0.00,,,0.00,Wunderground v.1.15,2013-07-02 11:04:00,
2013-07-02 07:19:00,64.7,63.2,29.96,NE,41,0.0,0.0,95,0.00,,,0.00,Wunderground v.1.15,2013-07-02 11:19:00,
2013-07-02 07:29:00,64.8,63.3,29.95,NE,42,0.0,0.0,95,0.00,,,0.00,Wunderground v.1.15,2013-07-02 11:29:00,
2013-07-02 07:39:00,65.0,63.8,29.96,NE,42,0.0,0.0,96,0.00,,,0.00,Wunderground v.1.15,2013-07-02 11:39:00,
2013-07-02 07:49:00,65.1,63.9,29.96,NE,42,0.0,0.0,96,0.00,,,0.00,Wunderground v.1.15,2013-07-02 11:49:00,
2013-07-02 07:59:00,65.3,63.8,29.96,East,88,1.0,3.0,95,0.00,,,0.00,Wunderground v.1.15,2013-07-02 11:59:00,
2013-07-02 08:09:00,65.9,64.7,29.97,East,90,3.0,3.0,96,0.00,,,0.00,Wunderground v.1.15,2013-07-02 12:09:00,
2013-07-02 08:19:00,65.8,64.3,29.97,East,88,3.0,6.0,95,0.00,,,0.00,Wunderground v.1.15,2013-07-02 12:19:00,
2013-07-02 08:29:00,65.9,64.4,29.98,East,94,4.0,4.0,95,0.00,,,0.00,Wunderground v.1.15,2013-07-02 12:29:00,
2013-07-02 08:39:00,66.1,64.6,29.98,ESE,115,4.0,5.0,95,0.00,,,0.00,Wunderground v.1.15,2013-07-02 12:39:00,
2013-07-02 08:49:00,66.2,64.7,29.98,NE,53,4.0,4.0,95,0.00,,,0.00,Wunderground v.1.15,2013-07-02 12:49:00,
2013-07-02 08:59:00,66.2,64.4,29.98,East,101,3.0,3.0,94,0.00,,,0.00,Wunderground v.1.15,2013-07-02 12:59:00,
2013-07-02 09:09:00,66.5,64.7,29.98,ESE,109,2.0,2.0,94,0.00,,,0.00,Wunderground v.1.15,2013-07-02 13:09:00,
2013-07-02 09:19:00,66.8,65.0,29.98,East,95,2.0,2.0,94,0.00,,,0.00,Wunderground v.1.15,2013-07-02 13:19:00,
2013-07-02 09:29:00,67.6,65.2,29.98,East,98,3.0,3.0,92,0.00,,,0.00,Wunderground v.1.15,2013-07-02 13:29:00,
2013-07-02 09:39:00,68.1,64.7,29.98,East,98,3.0,7.0,89,0.00,,,0.00,Wunderground v.1.15,2013-07-02 13:39:00,
2013-07-02 09:49:00,68.3,64.9,29.98,East,96,4.0,5.0,89,0.00,,,0.00,Wunderground v.1.15,2013-07-02 13:49:00,
2013-07-02 09:59:00,68.4,64.7,29.99,East,96,3.0,3.0,88,0.00,,,0.00,Wunderground v.1.15,2013-07-02 13:59:00,
2013-07-02 10:04:00,68.3,64.9,29.99,ESE,115,3.0,4.0,89,0.00,,,0.01,Wunderground v.1.15,2013-07-02 14:04:00,
2013-07-02 10:19:00,68.1,64.7,29.98,East,94,4.0,6.0,89,0.00,,,0.01,Wunderground v.1.15,2013-07-02 14:19:00,
2013-07-02 10:29:00,68.5,64.8,29.99,East,96,4.0,4.0,88,0.00,,,0.01,Wunderground v.1.15,2013-07-02 14:29:00,
2013-07-02 10:39:00,68.8,65.1,29.99,East,99,3.0,3.0,88,0.00,,,0.01,Wunderground v.1.15,2013-07-02 14:39:00,
2013-07-02 10:49:00,69.1,65.1,29.98,East,93,3.0,3.0,87,0.00,,,0.01,Wunderground v.1.15,2013-07-02 14:49:00,
2013-07-02 10:59:00,69.9,65.9,29.98,East,100,2.0,7.0,87,0.00,,,0.01,Wunderground v.1.15,2013-07-02 14:59:00,
2013-07-02 11:09:00,69.8,65.4,29.99,East,82,4.0,4.0,86,0.00,,,0.01,Wunderground v.1.15,2013-07-02 15:09:00,
2013-07-02 11:14:00,70.2,66.1,29.99,ESE,109,4.0,4.0,87,0.00,,,0.01,Wunderground v.1.15,2013-07-02 15:14:00,
2013-07-02 11:29:00,70.3,65.9,29.99,SE,129,4.0,4.0,86,0.00,,,0.01,Wunderground v.1.15,2013-07-02 15:29:00,
2013-07-02 11:39:00,70.9,66.2,29.99,East,83,3.0,5.0,85,0.00,,,0.01,Wunderground v.1.15,2013-07-02 15:39:00,
2013-07-02 11:49:00,71.5,66.8,29.99,ESE,119,5.0,5.0,85,0.00,,,0.01,Wunderground v.1.15,2013-07-02 15:49:00,
2013-07-02 11:59:00,71.5,66.8,29.99,ESE,107,5.0,5.0,85,0.00,,,0.01,Wunderground v.1.15,2013-07-02 15:59:00,
2013-07-02 12:09:00,71.8,67.0,29.99,ESE,114,5.0,5.0,85,0.00,,,0.01,Wunderground v.1.15,2013-07-02 16:09:00,
2013-07-02 12:19:00,72.0,66.2,29.99,ESE,107,4.0,5.0,82,0.00,,,0.01,Wunderground v.1.15,2013-07-02 16:19:00,
2013-07-02 12:24:00,72.0,66.9,29.99,SE,132,5.0,5.0,84,0.00,,,0.01,Wunderground v.1.15,2013-07-02 16:24:00,
2013-07-02 12:39:00,72.8,67.7,29.99,SE,146,4.0,4.0,84,0.00,,,0.01,Wunderground v.1.15,2013-07-02 16:39:00,
2013-07-02 12:49:00,73.2,67.0,29.99,SE,134,4.0,4.0,81,0.00,,,0.01,Wunderground v.1.15,2013-07-02 16:49:00,
2013-07-02 12:59:00,72.9,67.4,29.99,ESE,123,5.0,5.0,83,0.00,,,0.01,Wunderground v.1.15,2013-07-02 16:59:00,
2013-07-02 13:09:00,73.0,67.5,29.99,ESE,117,5.0,8.0,83,0.00,,,0.01,Wunderground v.1.15,2013-07-02 17:09:00,
2013-07-02 13:19:00,72.8,67.7,29.99,SE,125,5.0,5.0,84,0.00,,,0.01,Wunderground v.1.15,2013-07-02 17:19:00,
2013-07-02 13:29:00,73.3,67.8,29.99,East,99,7.0,10.0,83,0.00,,,0.01,Wunderground v.1.15,2013-07-02 17:29:00,
2013-07-02 13:39:00,73.9,68.8,29.99,SE,140,6.0,8.0,84,0.00,,,0.01,Wunderground v.1.15,2013-07-02 17:39:00,
2013-07-02 13:49:00,74.4,68.9,29.99,SE,132,4.0,4.0,83,0.00,,,0.01,Wunderground v.1.15,2013-07-02 17:49:00,
2013-07-02 13:59:00,75.1,68.5,29.98,SSE,168,3.0,6.0,80,0.00,,,0.01,Wunderground v.1.15,2013-07-02 17:59:00,
2013-07-02 14:09:00,75.0,67.7,29.98,SE,136,4.0,4.0,78,0.00,,,0.01,Wunderground v.1.15,2013-07-02 18:09:00,
2013-07-02 14:19:00,75.2,69.3,29.98,SE,135,4.0,4.0,82,0.00,,,0.01,Wunderground v.1.15,2013-07-02 18:19:00,
2013-07-02 14:29:00,75.8,68.1,29.98,ESE,113,4.0,9.0,77,0.00,,,0.01,Wunderground v.1.15,2013-07-02 18:29:00,
2013-07-02 14:39:00,75.4,67.7,29.98,SE,130,6.0,6.0,77,0.00,,,0.01,Wunderground v.1.15,2013-07-02 18:39:00,
2013-07-02 14:49:00,75.5,68.2,29.98,SE,127,2.0,6.0,78,0.00,,,0.01,Wunderground v.1.15,2013-07-02 18:49:00,
2013-07-02 14:59:00,75.7,67.6,29.98,ESE,106,4.0,7.0,76,0.00,,,0.01,Wunderground v.1.15,2013-07-02 18:59:00,
2013-07-02 15:09:00,76.4,68.7,29.98,ESE,106,5.0,8.0,77,0.00,,,0.01,Wunderground v.1.15,2013-07-02 19:09:00,
2013-07-02 15:19:00,76.4,67.9,29.98,South,182,5.0,5.0,75,0.00,,,0.01,Wunderground v.1.15,2013-07-02 19:19:00,
2013-07-02 15:29:00,76.4,67.9,29.98,SSW,196,4.0,5.0,75,0.00,,,0.01,Wunderground v.1.15,2013-07-02 19:29:00,
2013-07-02 15:39:00,76.7,67.0,29.97,ESE,114,4.0,4.0,72,0.00,,,0.01,Wunderground v.1.15,2013-07-02 19:39:00,
2013-07-02 15:49:00,77.0,67.3,29.97,South,175,5.0,5.0,72,0.00,,,0.01,Wunderground v.1.15,2013-07-02 19:49:00,
2013-07-02 15:59:00,76.7,67.8,29.97,South,171,4.0,4.0,74,0.00,,,0.01,Wunderground v.1.15,2013-07-02 19:59:00,
2013-07-02 16:09:00,76.8,66.7,29.97,ESE,118,3.0,4.0,71,0.00,,,0.01,Wunderground v.1.15,2013-07-02 20:09:00,
2013-07-02 16:19:00,77.3,68.0,29.97,ESE,118,4.0,5.0,73,0.00,,,0.01,Wunderground v.1.15,2013-07-02 20:19:00,
2013-07-02 16:29:00,77.8,66.4,29.97,ESE,123,4.0,4.0,68,0.00,,,0.01,Wunderground v.1.15,2013-07-02 20:29:00,
2013-07-02 16:39:00,77.8,66.4,29.96,South,178,3.0,3.0,68,0.00,,,0.01,Wunderground v.1.15,2013-07-02 20:39:00,
2013-07-02 16:49:00,77.9,67.3,29.96,South,181,2.0,2.0,70,0.00,,,0.01,Wunderground v.1.15,2013-07-02 20:49:00,
2013-07-02 16:59:00,78.5,66.6,29.96,SE,143,2.0,3.0,67,0.00,,,0.01,Wunderground v.1.15,2013-07-02 20:59:00,
2013-07-02 17:09:00,78.7,66.8,29.96,SE,143,2.0,2.0,67,0.00,,,0.01,Wunderground v.1.15,2013-07-02 21:09:00,
2013-07-02 17:19:00,78.0,66.6,29.96,SW,228,2.0,2.0,68,0.00,,,0.01,Wunderground v.1.15,2013-07-02 21:19:00,
2013-07-02 17:29:00,78.8,67.8,29.96,SSW,192,2.0,3.0,69,0.00,,,0.01,Wunderground v.1.15,2013-07-02 21:29:00,
2013-07-02 17:39:00,78.6,68.0,29.96,SSE,157,3.0,5.0,70,0.00,,,0.01,Wunderground v.1.15,2013-07-02 21:39:00,
2013-07-02 17:44:00,77.8,67.2,29.96,SSE,148,3.0,5.0,70,0.00,,,0.01,Wunderground v.1.15,2013-07-02 21:44:00,
2013-07-02 17:59:00,77.8,66.4,29.96,South,182,1.0,4.0,68,0.00,,,0.01,Wunderground v.1.15,2013-07-02 21:59:00,
2013-07-02 18:09:00,77.3,67.2,29.96,SSE,150,2.0,3.0,71,0.00,,,0.01,Wunderground v.1.15,2013-07-02 22:09:00,
2013-07-02 18:19:00,76.9,67.6,29.96,SE,132,2.0,2.0,73,0.00,,,0.01,Wunderground v.1.15,2013-07-02 22:19:00,
2013-07-02 18:29:00,76.9,67.2,29.96,SE,129,3.0,3.0,72,0.00,,,0.01,Wunderground v.1.15,2013-07-02 22:29:00,
2013-07-02 18:39:00,77.3,68.0,29.97,SE,132,4.0,4.0,73,0.00,,,0.01,Wunderground v.1.15,2013-07-02 22:39:00,
2013-07-02 18:49:00,77.4,66.4,29.97,South,169,3.0,3.0,69,0.00,,,0.01,Wunderground v.1.15,2013-07-02 22:49:00,
2013-07-02 18:59:00,77.6,67.4,29.97,SSW,192,2.0,2.0,71,0.00,,,0.01,Wunderground v.1.15,2013-07-02 22:59:00,
2013-07-02 19:09:00,77.5,67.8,29.97,ESE,123,2.0,2.0,72,0.00,,,0.01,Wunderground v.1.15,2013-07-02 23:09:00,
2013-07-02 19:19:00,77.3,67.6,29.97,South,188,2.0,2.0,72,0.00,,,0.01,Wunderground v.1.15,2013-07-02 23:19:00,
2013-07-02 19:29:00,77.5,67.8,29.97,South,173,1.0,1.0,72,0.00,,,0.01,Wunderground v.1.15,2013-07-02 23:29:00,
2013-07-02 19:39:00,77.6,68.3,29.97,South,171,1.0,1.0,73,0.00,,,0.01,Wunderground v.1.15,2013-07-02 23:39:00,
2013-07-02 19:49:00,77.9,68.5,29.97,South,171,0.0,0.0,73,0.00,,,0.01,Wunderground v.1.15,2013-07-02 23:49:00,
2013-07-02 19:59:00,77.9,67.7,29.97,SSE,164,0.0,0.0,71,0.00,,,0.01,Wunderground v.1.15,2013-07-02 23:59:00,
2013-07-02 20:09:00,77.6,68.7,29.97,SSE,164,0.0,0.0,74,0.00,,,0.01,Wunderground v.1.15,2013-07-03 00:09:00,
2013-07-02 20:19:00,77.3,68.8,29.97,SSE,164,0.0,0.0,75,0.00,,,0.01,Wunderground v.1.15,2013-07-03 00:19:00,
2013-07-02 20:29:00,76.2,68.8,29.97,SSE,164,0.0,0.0,78,0.00,,,0.01,Wunderground v.1.15,2013-07-03 00:29:00,
2013-07-02 20:39:00,74.8,67.8,29.98,SSE,164,0.0,0.0,79,0.00,,,0.01,Wunderground v.1.15,2013-07-03 00:39:00,
2013-07-02 20:49:00,73.5,68.0,29.98,SSE,164,0.0,0.0,83,0.00,,,0.01,Wunderground v.1.15,2013-07-03 00:49:00,
2013-07-02 20:59:00,72.7,67.9,29.98,SSE,164,0.0,0.0,85,0.00,,,0.01,Wunderground v.1.15,2013-07-03 00:59:00,
2013-07-02 21:09:00,71.9,67.1,29.98,SSE,164,0.0,0.0,85,0.00,,,0.01,Wunderground v.1.15,2013-07-03 01:09:00,
2013-07-02 21:19:00,71.2,66.8,29.98,SSE,164,0.0,0.0,86,0.00,,,0.01,Wunderground v.1.15,2013-07-03 01:19:00,
2013-07-02 21:29:00,70.4,66.3,29.98,SSE,164,0.0,0.0,87,0.00,,,0.01,Wunderground v.1.15,2013-07-03 01:29:00,
2013-07-02 21:39:00,69.9,66.2,29.99,SSE,164,0.0,0.0,88,0.00,,,0.01,Wunderground v.1.15,2013-07-03 01:39:00,
2013-07-02 21:49:00,69.4,66.0,29.99,SSE,164,0.0,0.0,89,0.00,,,0.01,Wunderground v.1.15,2013-07-03 01:49:00,
2013-07-02 22:09:00,68.8,65.4,29.99,SSE,164,0.0,0.0,89,0.00,,,0.01,Wunderground v.1.15,2013-07-03 02:09:00,
2013-07-02 22:20:00,68.7,65.6,30.00,SSE,164,0.0,0.0,90,0.00,,,0.01,Wunderground v.1.15,2013-07-03 02:20:00,
2013-07-02 22:30:00,68.6,65.5,30.00,SSE,164,0.0,3.0,90,0.00,,,0.01,Wunderground v.1.15,2013-07-03 02:30:00,
2013-07-02 22:40:00,69.0,66.3,30.02,ESE,123,3.0,3.0,91,0.00,,,0.02,Wunderground v.1.15,2013-07-03 02:40:00,
2013-07-02 22:50:00,68.1,65.1,30.01,SE,125,5.0,5.0,90,0.08,,,0.03,Wunderground v.1.15,2013-07-03 02:50:00,
2013-07-02 23:00:00,68.2,65.5,30.01,ESE,106,3.0,3.0,91,0.00,,,0.03,Wunderground v.1.15,2013-07-03 03:00:00,
2013-07-02 23:10:00,68.1,65.4,30.01,SE,124,0.0,0.0,91,0.00,,,0.03,Wunderground v.1.15,2013-07-03 03:10:00,
2013-07-02 23:20:00,67.8,65.1,30.01,SE,124,0.0,0.0,91,0.00,,,0.03,Wunderground v.1.15,2013-07-03 03:20:00,
2013-07-02 23:30:00,67.5,64.8,30.02,SE,124,0.0,0.0,91,0.00,,,0.03,Wunderground v.1.15,2013-07-03 03:30:00,
2013-07-02 23:40:00,67.1,64.7,30.02,SE,124,0.0,0.0,92,0.00,,,0.03,Wunderground v.1.15,2013-07-03 03:40:00,
2013-07-02 23:50:00,67.0,64.9,30.02,SE,124,0.0,0.0,93,0.00,,,0.03,Wunderground v.1.15,2013-07-03 03:50:00,